ONEWEB-0042 (45441 NORAD) Tracking and Keplerian Element Data

This shows tracking and keplerian element data for the satellite.

Feedback or suggestion? Click here.




ElementValue
Catalog45441
NameONEWEB-0042
Epoch Orbit3215
Epoch Day297.91667824
Epoch Year2020
RAAN71.7315
Inclination87.7879
Eccentricity0.0018701
Argument of Perigee237.0981
Mean Anonmoly5.2338
Mean Motion13.98749262
Decay Rate-0.00018514
L11 45441U 20020T 20297.91667824 -.00018514 00000-0 -12909-1 0 9998
L22 45441 87.7879 71.7315 0018701 237.0981 5.2338 13.98749262 32150

Live tracking and technical data element details for ONEWEB-0042 (NORAD 45441). ONEWEB-0042 can be tracked NOW for your location showing map with azimuth and elevation plus other details from your city location.

Track the satellite on the map from your city or location and see movement details for azimuth, elevation, latitude, longitude, range, height, and movement on the map or in text.







IsCatalogInMostPopularTable: catalog: 45441, numindb: 50
Update: records affected: 1



GetName: 45441 ONEWEB-0042

Hit Count: updated at: Sat, 24 Oct 2020 22:44:05 GMT